SCP
0 0 0 0 0 0 0 0 0 0 0 0 0 0 -0 -0 -0 -0 0 0 0 0 -0 -0 0 -0 0 0 -0 0 0 0 0 0 0 0 0 0 0 0 0 0 0 0 0 0 0
0 0 0 0 0 0 0 0 0 0 0 -0 0 -0 -0 -0 -0 -0 -0 0 0 0 -0 -0 -0 -0 -0 0 0 -0 0 0 0 0 0 0 0 0 0 0 0 0 0 0 0 0 0
0 0 0 0 0 0 0 0 0 0 0 0 0 -0 -0 -0 -0 -0 0 -0 0 0 0 0 -0 -0 -0 0 0 0 0 0 0 0 0 0 0 0 0 0 0 0 0 0 0 0 0
0 0 0 0 0 0 0 0 0 0 0 0 0 -0 -0 -0 -0 -0 -0 -0 -0 0 -0 -0 0 -0 0 0 0 0 0 -0 -0 0 0 0 0 0 0 0 0 0 0 0 0 0 0
0 0 0 0 0 0 0 0 0 0 0 0 0 0 -0 -0 -0 -0 -0 -0 -0 -0 -0 -0 0 -0 0 0 0 0 0 -0 0 0 0 0 0 0 0 0 0 0 0 0 0 0 0
0 0 0 0 0 0 0 0 0 -0 0 0 0 0 0 -0 0 -0 -0 -0 -0 -0 -0 0 0 0 0 -0 -0 0 -0 0 0 0 0 0 0 0 0 0 0 0 0 0 0 0 0
0 0 0 0 0 0 0 0 0 0 0 0 0 0 0 0 -0 -0 -0 -0 -0 0 -0 0 0 0 0 -0 0 -0 0 0 0 0 0 0 0 0 0 0 0 0 0 0 0 0 0
0 0 0 0 0 0 0 0 0 0 0 0 0 0 0 -0 0 0 -0 0 0 0 0 0 -0 0 0 0 0 0 0 0 0 0 0 0 0 0 0 0 0 0 0 0 0 0 0
0 0 0 0 0 0 0 0 0 0 0 0 0 0 0 0 -0 0 0 0 -0 -0 0 0 0 0 0 0 0 0 0 0 0 0 0 0 0 0 0 0 0 0 0 0 0 0 0
0 0 0 0 0 0 0 0 0 0 0 0 0 0 0 0 0 -0 0 0 -0 -0 0 0 0 0 0 0 0 0 0 0 0 0 0 0 0 0 0 0 0 0 0 0 0 0 0
0 0 0 0 0 0 0 0 0 0 0 0 0 0 0 0 0 0 0 0 0 0 0 0 0 0 0 0 0 0 0 0 0 0 0 0 0 0 0 0 0 0 0 0 0 0 0
0 0 0 0 0 0 0 0 0 0 0 0 0 0 0 0 0 0 0 0 0 0 0 0 0 0 0 0 0 0 0 0 0 0 0 0 0 0 0 0 0 0 0 0 0 0 0
0 0 0 0 0 0 0 0 0 0 0 0 0 0 0 0 0 0 0 0 0 0 0 0 0 0 0 0 0 0 0 0 0 0 0 0 0 0 0 0 0 0 0 0 0 0 0
0 0 0 0 0 0 0 0 0 0 0 0 0 0 0 0 0 0 0 0 0 0 0 0 0 0 0 0 0 0 0 0 0 0 0 0 0 0 0 0 0 0 0 0 0 0 0
0 0 0 0 0 0 0 0 0 0 0 0 0 0 0 0 0 0 0 0 0 0 0 0 0 0 0 0 0 0 0 0 0 0 0 0 0 0 0 0 0 0 0 0 0 0 0
0 0 0 0 0 0 0 0 0 0 0 0 0 0 0 0 0 0 0 0 0 0 0 0 0 0 0 0 0 0 0 0 0 0 0 0 0 0 0 0 0 0 0 0 0 0 0
0 0 0 0 0 0 0 0 0 0 0 0 0 0 0 0 0 0 0 0 0 0 0 0 0 0 0 0 0 0 0 0 0 0 0 0 0 0 0 0 0 0 0 0 0 0 0
0 0 0 0 0 0 0 0 0 0 0 0 0 0 0 0 0 0 0 0 0 0 0 0 0 0 0 0 0 0 0 0 0 0 0 0 0 0 0 0 0 0 0 0 0 0 0
0 0 0 0 0 0 0 0 0 0 0 0 0 0 0 0 0 0 0 0 0 0 0 0 0 0 0 0 0 0 0 0 0 0 0 0 0 0 0 0 0 0 0 0 0 0 0
0 0 0 0 0 0 0 0 0 0 0 0 0 0 0 0 0 0 0 0 0 0 0 0 0 0 0 0 0 0 0 0 0 0 0 0 0 0 0 0 0 0 0 0 0 0 0
0 0 0 0 0 0 0 0 0 0 0 0 0 0 0 0 0 0 0 0 0 0 0 0 0 0 0 0 0 0 0 0 0 0 0 0 0 0 0 0 0 0 0 0 0 0 0
0 0 0 0 0 0 0 0 0 0 0 0 0 0 0 0 0 0 0 0 0 0 0 0 0 0 0 0 0 0 0 0 0 0 0 0 0 0 0 0 0 0 0 0 0 0 0
-0 0 0 0 0 0 0 0 0 0 0 0 0 0 0 0 0 0 0 0 0 0 0 0 0 0 0 0 0 0 0 0 0 0 0 0 0 0 0 0 0 0 0 0 0 0 0
0 0 0 0 0 0 0 0 0 0 0 0 0 0 0 0 0 0 0 0 0 0 0 0 0 0 0 0 0 0 0 0 0 0 0 0 0 0 0 0 0 0 0 0 0 0 0
0 0 0 0 0 0 0 0 0 0 0 0 0 0 0 0 0 0 0 0 0 0 0 0 0 0 0 0 0 0 0 0 0 0 0 0 0 0 0 0 0 0 0 0 0 0 0
0 0 0 0 0 -0 0 0 0 0 0 0 0 0 0 0 0 0 0 0 0 0 0 0 0 0 0 0 0 0 0 0 0 0 0 0 0 0 0 0 0 0 0 0 0 0 0
0 0 0 0 0 -0 -0 0 0 0 0 0 0 0 0 0 0 0 0 0 0 0 0 0 0 0 0 0 0 0 0 0 0 0 0 0 0 0 0 0 0 0 0 0 0 0 0
0 0 0 0 0 0 -0 -0 -0 0 0 0 0 0 0 0 0 0 0 0 0 0 0 0 0 0 0 0 0 0 0 0 0 0 0 0 0 0 0 0 0 0 0 0 0 0 0
0 0 0 0 0 0 0 -0 -0 0 0 0 0 0 0 0 0 0 0 0 0 0 0 0 0 0 0 0 0 0 0 0 0 0 0 0 0 0 0 0 0 0 0 0 0 0 0
Wind_Speed_500mb
26 21 15 10 9 7 4 3 2 5 6 8 13 15 17 20 21 20 20 18 11 13 18 25 33 23 21 18 15 33 27 26 26 32 29 18 29 19 11 8 19 16 10 19 14 17 12
29 25 19 14 11 9 5 2 1 2 4 7 11 13 16 18 21 20 20 18 9 10 16 11 23 39 15 13 26 29 22 23 30 33 30 29 16 16 15 12 16 5 4 16 26 20 9
31 30 24 19 15 12 9 5 1 3 3 5 9 12 14 16 19 18 18 19 13 11 17 10 7 14 39 22 22 25 18 26 27 30 32 26 26 13 5 8 2 1 8 10 25 25 9
36 32 27 24 20 15 12 7 3 3 2 5 8 9 10 13 16 13 13 22 18 4 16 9 14 25 15 29 25 19 16 17 21 26 24 22 23 18 9 2 8 9 4 9 16 26 10
38 37 33 28 24 19 15 9 5 4 5 3 4 7 10 11 14 15 12 18 23 9 23 15 18 12 9 20 26 26 20 17 13 19 24 23 16 21 9 8 5 13 8 10 5 23 16
40 38 37 33 28 22 17 12 7 5 5 5 4 6 10 11 13 14 12 3 18 19 5 12 13 11 19 17 28 27 19 23 18 20 11 15 9 14 19 18 6 14 12 14 8 14 17
43 41 41 37 32 26 21 15 9 7 5 4 4 6 9 10 13 14 13 4 5 7 46 20 12 6 9 17 23 29 15 26 11 18 8 19 16 16 17 14 11 11 13 16 14 13 12
48 46 45 41 38 31 26 19 14 11 6 4 4 3 6 7 11 14 12 5 11 16 21 19 19 16 16 21 11 40 21 11 26 17 3 8 15 14 15 15 12 12 14 15 10 2 7
52 50 49 46 43 35 31 24 19 12 8 5 2 4 6 4 9 11 17 17 19 16 7 10 15 12 15 19 14 32 24 10 11 15 21 14 8 17 11 12 23 13 11 16 12 20 16
53 51 52 51 48 41 35 28 24 17 11 7 3 2 5 2 4 9 14 11 9 6 8 12 9 11 14 7 7 31 19 6 8 10 11 11 11 13 10 13 19 6 16 16 13 12 5
54 53 53 54 52 46 40 34 29 22 15 10 6 4 1 5 4 7 9 7 7 4 2 5 7 9 13 12 8 18 28 11 11 9 3 0 10 12 12 12 15 9 17 12 11 11 11
57 55 56 58 55 49 46 39 35 27 20 13 9 6 4 2 5 7 8 8 9 9 5 6 5 9 3 13 6 13 10 16 7 5 14 5 2 5 7 17 11 25 12 12 11 4 3
58 56 55 58 56 48 49 43 39 32 24 18 12 9 6 3 3 4 6 8 9 8 4 1 4 4 3 8 7 11 8 14 8 8 9 8 4 6 14 10 2 23 9 4 5 5 2
65 64 60 59 57 52 51 47 43 37 31 23 17 12 9 4 1 3 6 6 3 3 7 1 2 4 4 9 4 5 2 5 14 10 6 5 5 9 17 7 7 14 11 6 5 8 8
72 75 67 62 57 54 56 49 44 42 36 27 22 15 12 8 4 2 6 7 9 9 10 13 4 4 3 3 3 2 6 5 5 8 6 5 4 2 6 5 7 12 9 3 2 3 3
83 81 76 69 64 60 56 50 47 47 41 31 22 15 15 13 8 6 7 7 5 3 5 6 8 2 4 5 4 4 2 1 8 5 5 1 5 3 4 2 7 3 3 2 3 8 9
91 91 87 80 75 70 66 57 53 45 44 34 26 10 12 19 14 6 6 10 6 6 2 4 7 7 1 7 2 3 6 5 3 8 4 3 4 5 4 2 3 3 2 3 2 3 1
112 94 92 92 85 82 78 72 64 54 46 43 24 6 16 26 6 4 7 12 9 9 4 3 6 2 4 6 6 4 5 6 10 13 2 9 2 4 7 3 6 7 5 3 4 4 2
36 113 103 99 99 93 91 85 78 70 67 63 22 13 24 36 7 5 3 6 5 10 9 8 8 3 2 6 3 4 6 6 9 4 2 7 1 6 6 3 3 6 6 7 8 4 10
46 38 107 105 105 105 101 98 91 86 77 69 23 5 9 21 9 12 11 8 9 7 10 6 7 13 4 3 4 8 8 5 9 3 2 6 2 8 9 6 5 6 6 10 11 3 5
43 45 35 49 114 99 108 107 99 97 86 76 25 16 22 10 14 13 18 18 12 13 6 16 4 13 11 6 2 7 7 9 8 10 7 4 5 3 12 16 9 11 13 15 17 17 9
65 49 56 50 61 103 103 114 107 105 97 88 26 17 17 17 29 21 11 15 20 13 17 10 8 19 13 8 9 15 12 11 9 11 9 7 2 4 9 4 3 10 18 17 11 10 23
67 65 59 71 35 51 118 113 113 111 115 49 48 30 22 21 17 13 11 14 19 31 14 7 22 12 14 7 12 12 12 10 16 13 12 10 6 4 10 3 9 12 13 23 10 12 12
50 60 67 72 50 45 67 110 108 120 125 85 81 51 21 6 6 14 20 17 21 24 17 16 20 12 15 19 26 20 23 19 14 9 4 7 5 4 7 8 6 11 6 14 15 12 32
53 48 61 70 66 61 42 73 93 116 119 119 80 76 28 8 27 10 26 16 41 28 10 14 10 20 35 18 5 4 6 10 8 8 5 6 3 2 4 3 15 1 8 12 14 13 30
60 57 54 70 69 80 64 39 81 77 112 131 89 89 49 26 22 37 24 35 12 9 9 8 23 45 24 6 4 9 10 10 4 5 5 4 6 5 1 5 9 6 8 12 6 9 15
55 54 49 58 73 76 71 60 31 101 77 121 95 86 53 20 21 56 18 28 24 21 10 18 21 20 16 4 5 7 8 4 9 17 12 8 2 8 6 6 17 10 22 18 10 10 10
49 49 62 52 56 68 78 65 53 38 108 111 88 92 81 30 34 63 50 45 38 38 13 30 17 6 5 8 7 8 6 11 4 9 14 15 17 9 6 3 16 33 15 15 5 6 8
49 38 45 61 55 54 60 76 72 54 50 93 59 79 84 34 22 61 69 59 64 71 52 65 12 23 33 7 6 6 4 4 6 6 5 6 13 12 20 13 4 58 15 37 6 10 11
Wind_Direction_500mb
203 195 196 202 201 174 163 126 42 30 14 34 40 36 27 21 17 17 30 44 85 61 33 48 50 56 61 48 28 9 19 33 42 30 45 57 47 48 64 51 62 64 52 43 3 349 314
210 202 199 204 207 202 190 159 80 34 10 22 53 34 25 25 18 24 28 38 46 27 22 42 69 57 62 74 22 6 34 37 41 50 36 66 55 58 75 41 34 71 14 42 23 16 44
209 206 203 207 210 210 213 191 168 312 360 15 41 43 25 21 26 30 36 41 24 40 21 47 52 56 40 47 30 20 40 42 44 44 43 61 61 88 348 117 60 155 284 197 36 360 25
217 215 212 212 210 212 216 218 221 286 322 9 16 38 25 18 25 31 40 13 357 57 28 64 62 71 77 37 38 32 34 39 47 45 47 62 55 49 65 103 208 232 230 6 60 18 355
224 220 217 215 215 214 219 221 232 278 306 358 21 22 9 12 17 17 17 34 39 107 66 62 66 82 63 22 21 26 23 17 37 34 39 40 53 33 12 260 241 41 356 11 82 36 339
227 223 223 217 217 217 220 221 219 246 296 323 345 16 10 11 12 18 18 57 37 49 110 43 39 85 25 353 25 10 17 28 20 23 21 11 33 56 25 16 30 335 344 342 34 24 335
226 225 222 218 217 217 222 219 223 230 270 302 331 13 10 15 12 21 36 77 74 46 64 63 39 55 6 11 30 7 25 40 5 41 35 34 56 34 8 11 330 311 329 310 357 18 310
223 225 224 218 219 217 216 214 216 216 231 282 326 1 8 12 26 34 49 62 115 128 86 59 69 37 31 28 355 14 48 56 48 43 297 99 45 1 322 15 330 340 360 351 311 343 306
225 223 225 221 219 214 216 210 214 219 224 252 297 340 354 354 48 46 60 94 121 121 87 25 35 26 16 37 31 3 23 31 6 36 54 73 4 333 347 26 348 90 17 330 304 311 245
227 224 224 223 220 214 215 213 213 209 224 236 263 305 342 58 71 51 67 102 136 145 81 342 8 2 7 28 50 12 24 45 48 46 29 66 8 350 4 26 352 324 3 313 309 330 17
226 225 225 227 224 217 215 212 213 208 216 225 232 244 314 49 80 59 75 107 128 135 45 30 2 351 27 63 332 359 24 54 49 39 254 119 13 347 29 1 334 309 330 314 314 303 326
227 227 228 226 220 216 218 214 212 208 213 215 227 238 236 144 78 72 79 108 121 45 264 339 329 340 271 32 44 355 27 40 62 347 57 94 186 34 335 308 280 287 288 223 281 292 6
226 231 232 227 217 215 218 217 214 209 215 213 221 233 242 210 125 79 85 112 28 127 320 43 15 1 105 17 35 22 63 40 29 40 16 324 47 114 356 336 216 348 328 337 342 353 196
226 230 231 232 220 213 220 215 214 209 213 214 220 223 236 225 154 56 101 65 100 233 204 221 123 278 75 337 76 352 36 77 58 31 56 42 342 19 351 82 333 331 344 90 289 345 307
227 229 229 232 230 223 225 216 215 212 213 215 218 218 225 219 196 112 89 73 218 201 157 148 112 75 15 190 353 224 47 79 52 15 105 11 253 125 55 9 355 319 45 10 321 125 313
227 228 227 229 232 227 222 217 218 213 211 209 211 218 230 213 184 135 79 227 180 285 122 134 152 173 186 173 212 217 149 54 121 64 40 248 336 308 52 270 226 300 299 329 301 10 323
226 226 226 228 229 227 223 219 217 209 207 199 197 208 220 199 170 134 171 209 174 169 287 130 165 138 293 173 262 144 103 155 129 130 142 157 121 303 315 16 11 240 351 297 108 29 259
225 229 228 228 227 226 223 219 215 208 196 194 186 198 195 176 119 81 162 170 141 151 203 148 116 151 184 164 158 177 149 66 126 153 56 151 108 289 227 300 13 314 324 315 111 240 205
265 226 228 228 228 229 222 219 214 208 200 189 181 178 177 177 151 195 212 141 172 154 190 190 134 194 278 174 130 145 127 105 138 164 88 148 230 3 324 7 77 275 231 244 69 68 224
265 245 228 232 234 233 226 220 217 209 200 195 170 145 152 191 202 150 147 185 158 179 161 171 112 122 145 66 341 169 157 157 166 98 155 111 74 168 200 197 117 221 227 246 155 174 234
242 232 244 222 233 232 226 222 219 211 201 193 197 207 169 176 222 191 174 150 143 165 216 176 156 207 175 148 54 223 143 127 167 172 177 225 194 148 260 266 260 236 219 206 215 214 177
249 242 246 250 222 230 227 224 222 213 201 194 178 172 162 177 152 149 171 204 159 151 155 201 206 188 195 175 205 196 159 175 173 164 203 190 153 112 289 352 342 270 238 209 231 257 266
252 244 239 244 242 235 227 226 220 215 198 194 202 182 178 164 153 160 203 181 186 139 186 133 177 127 188 207 118 91 123 100 138 151 200 166 148 77 275 300 323 302 223 190 185 199 172
249 245 234 240 247 244 218 225 231 218 209 198 196 189 168 176 168 186 176 155 162 178 141 149 159 141 152 156 117 94 80 75 80 38 11 167 124 113 261 354 1 240 143 181 195 223 213
239 238 236 236 236 232 227 218 226 227 214 203 196 197 193 145 179 145 157 123 117 123 94 129 132 141 142 135 108 87 3 22 341 23 334 2 184 66 126 204 287 276 195 172 177 279 209
242 247 243 238 239 245 241 213 220 227 222 210 197 201 201 143 211 172 151 167 140 129 113 103 128 145 156 146 148 189 203 181 252 29 325 328 3 125 51 126 225 238 168 169 134 301 204
237 238 236 232 235 242 252 236 219 221 224 216 203 204 197 181 183 178 168 176 156 137 113 135 146 166 167 167 162 193 231 163 170 171 169 161 120 185 201 253 284 220 160 145 79 241 194
233 240 236 227 231 236 240 245 243 219 223 218 210 212 204 205 193 194 197 169 159 161 145 149 115 169 155 193 185 207 173 213 137 159 174 168 157 192 147 195 279 149 126 175 201 190 225
233 246 243 231 224 228 233 235 236 230 210 220 215 213 207 204 200 200 207 209 208 199 171 164 181 157 173 159 205 127 159 123 180 229 155 230 193 180 194 216 262 185 215 216 248 247 234
Wind_Speed_850mb
26 21 15 10 9 7 4 3 2 5 6 8 13 15 17 20 21 20 20 18 11 13 18 25 33 23 21 18 15 33 27 26 26 32 29 18 29 19 11 8 19 16 10 19 14 17 12
29 25 19 14 11 9 5 2 1 2 4 7 11 13 16 18 21 20 20 18 9 10 16 11 23 39 15 13 26 29 22 23 30 33 30 29 16 16 15 12 16 5 4 16 26 20 9
31 30 24 19 15 12 9 5 1 3 3 5 9 12 14 16 19 18 18 19 13 11 17 10 7 14 39 22 22 25 18 26 27 30 32 26 26 13 5 8 2 1 8 10 25 25 9
36 32 27 24 20 15 12 7 3 3 2 5 8 9 10 13 16 13 13 22 18 4 16 9 14 25 15 29 25 19 16 17 21 26 24 22 23 18 9 2 8 9 4 9 16 26 10
38 37 33 28 24 19 15 9 5 4 5 3 4 7 10 11 14 15 12 18 23 9 23 15 18 12 9 20 26 26 20 17 13 19 24 23 16 21 9 8 5 13 8 10 5 23 16
40 38 37 33 28 22 17 12 7 5 5 5 4 6 10 11 13 14 12 3 18 19 5 12 13 11 19 17 28 27 19 23 18 20 11 15 9 14 19 18 6 14 12 14 8 14 17
43 41 41 37 32 26 21 15 9 7 5 4 4 6 9 10 13 14 13 4 5 7 46 20 12 6 9 17 23 29 15 26 11 18 8 19 16 16 17 14 11 11 13 16 14 13 12
48 46 45 41 38 31 26 19 14 11 6 4 4 3 6 7 11 14 12 5 11 16 21 19 19 16 16 21 11 40 21 11 26 17 3 8 15 14 15 15 12 12 14 15 10 2 7
52 50 49 46 43 35 31 24 19 12 8 5 2 4 6 4 9 11 17 17 19 16 7 10 15 12 15 19 14 32 24 10 11 15 21 14 8 17 11 12 23 13 11 16 12 20 16
53 51 52 51 48 41 35 28 24 17 11 7 3 2 5 2 4 9 14 11 9 6 8 12 9 11 14 7 7 31 19 6 8 10 11 11 11 13 10 13 19 6 16 16 13 12 5
54 53 53 54 52 46 40 34 29 22 15 10 6 4 1 5 4 7 9 7 7 4 2 5 7 9 13 12 8 18 28 11 11 9 3 0 10 12 12 12 15 9 17 12 11 11 11
57 55 56 58 55 49 46 39 35 27 20 13 9 6 4 2 5 7 8 8 9 9 5 6 5 9 3 13 6 13 10 16 7 5 14 5 2 5 7 17 11 25 12 12 11 4 3
58 56 55 58 56 48 49 43 39 32 24 18 12 9 6 3 3 4 6 8 9 8 4 1 4 4 3 8 7 11 8 14 8 8 9 8 4 6 14 10 2 23 9 4 5 5 2
65 64 60 59 57 52 51 47 43 37 31 23 17 12 9 4 1 3 6 6 3 3 7 1 2 4 4 9 4 5 2 5 14 10 6 5 5 9 17 7 7 14 11 6 5 8 8
72 75 67 62 57 54 56 49 44 42 36 27 22 15 12 8 4 2 6 7 9 9 10 13 4 4 3 3 3 2 6 5 5 8 6 5 4 2 6 5 7 12 9 3 2 3 3
83 81 76 69 64 60 56 50 47 47 41 31 22 15 15 13 8 6 7 7 5 3 5 6 8 2 4 5 4 4 2 1 8 5 5 1 5 3 4 2 7 3 3 2 3 8 9
91 91 87 80 75 70 66 57 53 45 44 34 26 10 12 19 14 6 6 10 6 6 2 4 7 7 1 7 2 3 6 5 3 8 4 3 4 5 4 2 3 3 2 3 2 3 1
112 94 92 92 85 82 78 72 64 54 46 43 24 6 16 26 6 4 7 12 9 9 4 3 6 2 4 6 6 4 5 6 10 13 2 9 2 4 7 3 6 7 5 3 4 4 2
36 113 103 99 99 93 91 85 78 70 67 63 22 13 24 36 7 5 3 6 5 10 9 8 8 3 2 6 3 4 6 6 9 4 2 7 1 6 6 3 3 6 6 7 8 4 10
46 38 107 105 105 105 101 98 91 86 77 69 23 5 9 21 9 12 11 8 9 7 10 6 7 13 4 3 4 8 8 5 9 3 2 6 2 8 9 6 5 6 6 10 11 3 5
43 45 35 49 114 99 108 107 99 97 86 76 25 16 22 10 14 13 18 18 12 13 6 16 4 13 11 6 2 7 7 9 8 10 7 4 5 3 12 16 9 11 13 15 17 17 9
65 49 56 50 61 103 103 114 107 105 97 88 26 17 17 17 29 21 11 15 20 13 17 10 8 19 13 8 9 15 12 11 9 11 9 7 2 4 9 4 3 10 18 17 11 10 23
67 65 59 71 35 51 118 113 113 111 115 49 48 30 22 21 17 13 11 14 19 31 14 7 22 12 14 7 12 12 12 10 16 13 12 10 6 4 10 3 9 12 13 23 10 12 12
50 60 67 72 50 45 67 110 108 120 125 85 81 51 21 6 6 14 20 17 21 24 17 16 20 12 15 19 26 20 23 19 14 9 4 7 5 4 7 8 6 11 6 14 15 12 32
53 48 61 70 66 61 42 73 93 116 119 119 80 76 28 8 27 10 26 16 41 28 10 14 10 20 35 18 5 4 6 10 8 8 5 6 3 2 4 3 15 1 8 12 14 13 30
60 57 54 70 69 80 64 39 81 77 112 131 89 89 49 26 22 37 24 35 12 9 9 8 23 45 24 6 4 9 10 10 4 5 5 4 6 5 1 5 9 6 8 12 6 9 15
55 54 49 58 73 76 71 60 31 101 77 121 95 86 53 20 21 56 18 28 24 21 10 18 21 20 16 4 5 7 8 4 9 17 12 8 2 8 6 6 17 10 22 18 10 10 10
49 49 62 52 56 68 78 65 53 38 108 111 88 92 81 30 34 63 50 45 38 38 13 30 17 6 5 8 7 8 6 11 4 9 14 15 17 9 6 3 16 33 15 15 5 6 8
49 38 45 61 55 54 60 76 72 54 50 93 59 79 84 34 22 61 69 59 64 71 52 65 12 23 33 7 6 6 4 4 6 6 5 6 13 12 20 13 4 58 15 37 6 10 11
Wind_Direction_850mb
203 195 196 202 201 174 163 126 42 30 14 34 40 36 27 21 17 17 30 44 85 61 33 48 50 56 61 48 28 9 19 33 42 30 45 57 47 48 64 51 62 64 52 43 3 349 314
210 202 199 204 207 202 190 159 80 34 10 22 53 34 25 25 18 24 28 38 46 27 22 42 69 57 62 74 22 6 34 37 41 50 36 66 55 58 75 41 34 71 14 42 23 16 44
209 206 203 207 210 210 213 191 168 312 360 15 41 43 25 21 26 30 36 41 24 40 21 47 52 56 40 47 30 20 40 42 44 44 43 61 61 88 348 117 60 155 284 197 36 360 25
217 215 212 212 210 212 216 218 221 286 322 9 16 38 25 18 25 31 40 13 357 57 28 64 62 71 77 37 38 32 34 39 47 45 47 62 55 49 65 103 208 232 230 6 60 18 355
224 220 217 215 215 214 219 221 232 278 306 358 21 22 9 12 17 17 17 34 39 107 66 62 66 82 63 22 21 26 23 17 37 34 39 40 53 33 12 260 241 41 356 11 82 36 339
227 223 223 217 217 217 220 221 219 246 296 323 345 16 10 11 12 18 18 57 37 49 110 43 39 85 25 353 25 10 17 28 20 23 21 11 33 56 25 16 30 335 344 342 34 24 335
226 225 222 218 217 217 222 219 223 230 270 302 331 13 10 15 12 21 36 77 74 46 64 63 39 55 6 11 30 7 25 40 5 41 35 34 56 34 8 11 330 311 329 310 357 18 310
223 225 224 218 219 217 216 214 216 216 231 282 326 1 8 12 26 34 49 62 115 128 86 59 69 37 31 28 355 14 48 56 48 43 297 99 45 1 322 15 330 340 360 351 311 343 306
225 223 225 221 219 214 216 210 214 219 224 252 297 340 354 354 48 46 60 94 121 121 87 25 35 26 16 37 31 3 23 31 6 36 54 73 4 333 347 26 348 90 17 330 304 311 245
227 224 224 223 220 214 215 213 213 209 224 236 263 305 342 58 71 51 67 102 136 145 81 342 8 2 7 28 50 12 24 45 48 46 29 66 8 350 4 26 352 324 3 313 309 330 17
226 225 225 227 224 217 215 212 213 208 216 225 232 244 314 49 80 59 75 107 128 135 45 30 2 351 27 63 332 359 24 54 49 39 254 119 13 347 29 1 334 309 330 314 314 303 326
227 227 228 226 220 216 218 214 212 208 213 215 227 238 236 144 78 72 79 108 121 45 264 339 329 340 271 32 44 355 27 40 62 347 57 94 186 34 335 308 280 287 288 223 281 292 6
226 231 232 227 217 215 218 217 214 209 215 213 221 233 242 210 125 79 85 112 28 127 320 43 15 1 105 17 35 22 63 40 29 40 16 324 47 114 356 336 216 348 328 337 342 353 196
226 230 231 232 220 213 220 215 214 209 213 214 220 223 236 225 154 56 101 65 100 233 204 221 123 278 75 337 76 352 36 77 58 31 56 42 342 19 351 82 333 331 344 90 289 345 307
227 229 229 232 230 223 225 216 215 212 213 215 218 218 225 219 196 112 89 73 218 201 157 148 112 75 15 190 353 224 47 79 52 15 105 11 253 125 55 9 355 319 45 10 321 125 313
227 228 227 229 232 227 222 217 218 213 211 209 211 218 230 213 184 135 79 227 180 285 122 134 152 173 186 173 212 217 149 54 121 64 40 248 336 308 52 270 226 300 299 329 301 10 323
226 226 226 228 229 227 223 219 217 209 207 199 197 208 220 199 170 134 171 209 174 169 287 130 165 138 293 173 262 144 103 155 129 130 142 157 121 303 315 16 11 240 351 297 108 29 259
225 229 228 228 227 226 223 219 215 208 196 194 186 198 195 176 119 81 162 170 141 151 203 148 116 151 184 164 158 177 149 66 126 153 56 151 108 289 227 300 13 314 324 315 111 240 205
265 226 228 228 228 229 222 219 214 208 200 189 181 178 177 177 151 195 212 141 172 154 190 190 134 194 278 174 130 145 127 105 138 164 88 148 230 3 324 7 77 275 231 244 69 68 224
265 245 228 232 234 233 226 220 217 209 200 195 170 145 152 191 202 150 147 185 158 179 161 171 112 122 145 66 341 169 157 157 166 98 155 111 74 168 200 197 117 221 227 246 155 174 234
242 232 244 222 233 232 226 222 219 211 201 193 197 207 169 176 222 191 174 150 143 165 216 176 156 207 175 148 54 223 143 127 167 172 177 225 194 148 260 266 260 236 219 206 215 214 177
249 242 246 250 222 230 227 224 222 213 201 194 178 172 162 177 152 149 171 204 159 151 155 201 206 188 195 175 205 196 159 175 173 164 203 190 153 112 289 352 342 270 238 209 231 257 266
252 244 239 244 242 235 227 226 220 215 198 194 202 182 178 164 153 160 203 181 186 139 186 133 177 127 188 207 118 91 123 100 138 151 200 166 148 77 275 300 323 302 223 190 185 199 172
249 245 234 240 247 244 218 225 231 218 209 198 196 189 168 176 168 186 176 155 162 178 141 149 159 141 152 156 117 94 80 75 80 38 11 167 124 113 261 354 1 240 143 181 195 223 213
239 238 236 236 236 232 227 218 226 227 214 203 196 197 193 145 179 145 157 123 117 123 94 129 132 141 142 135 108 87 3 22 341 23 334 2 184 66 126 204 287 276 195 172 177 279 209
242 247 243 238 239 245 241 213 220 227 222 210 197 201 201 143 211 172 151 167 140 129 113 103 128 145 156 146 148 189 203 181 252 29 325 328 3 125 51 126 225 238 168 169 134 301 204
237 238 236 232 235 242 252 236 219 221 224 216 203 204 197 181 183 178 168 176 156 137 113 135 146 166 167 167 162 193 231 163 170 171 169 161 120 185 201 253 284 220 160 145 79 241 194
233 240 236 227 231 236 240 245 243 219 223 218 210 212 204 205 193 194 197 169 159 161 145 149 115 169 155 193 185 207 173 213 137 159 174 168 157 192 147 195 279 149 126 175 201 190 225
233 246 243 231 224 228 233 235 236 230 210 220 215 213 207 204 200 200 207 209 208 199 171 164 181 157 173 159 205 127 159 123 180 229 155 230 193 180 194 216 262 185 215 216 248 247 234